contact:dominique.lefevre@mio.osupytheas.fr, maurice.libes@osupytheas.fr, didier.mallarino@osupytheas.fr
Project:EMSO http://www.emso-fr.org/EMSO-France
Depth: 2436.0 m
Title:EMSO Ligure Ouest : Data MII capteur AQUADOPP
Date,Latitude,Longitude,X_East,Y_North,Z_Up,Amplitude_X,Amplitude_Y,Amplitude_Z,Batterie,SoundSpeed,Heading,Pitch,Roll,Pressure,TIS,Speed,Direction
, degrees North, degrees East, m.s-1, m.s-1,m.s-1, 1, 1, 1, Volt, m.s-1, degree, degree, degree, dbar, degree_C, m.s-1, degree
2019-06-13T00:09:04,42.805,6.029,0.083,-0.013,-0.022,100.0,103.0,97.0,13.4,1505.2,323.8,-0.7,1.8,2470.159,13.28,0.084,98.9
2019-06-13T00:12:05,42.805,6.029,0.073,0.0,0.003,101.0,100.0,98.0,13.4,1505.2,327.7,-0.8,1.9,2470.021,13.3,0.072,90.0
2019-06-13T00:15:06,42.805,6.029,0.057,-0.028,-0.006,99.0,101.0,97.0,13.3,1505.3,326.2,-0.7,1.9,2470.12,13.31,0.063,116.2
2019-06-13T00:18:07,42.805,6.029,0.063,-0.042,0.0,100.0,102.0,97.0,13.3,1505.3,325.0,-0.7,1.8,2470.11,13.31,0.075,123.7
2019-06-13T00:21:08,42.805,6.029,0.071,-0.026,-0.025,101.0,101.0,98.0,13.4,1505.3,327.6,-0.8,1.8,2470.045,13.31,0.075,110.1
2019-06-13T00:24:09,42.805,6.029,0.083,-0.015,-0.012,100.0,102.0,97.0,13.4,1505.3,325.4,-0.7,1.9,2470.13,13.31,0.084,100.2
2019-06-13T00:27:10,42.805,6.029,0.09,-0.034,0.001,101.0,101.0,96.0,13.4,1505.3,324.1,-0.8,1.8,2470.098,13.32,0.096,110.7
2019-06-13T00:30:11,42.805,6.029,0.081,-0.027,-0.013,100.0,101.0,97.0,13.4,1505.3,327.1,-0.8,1.9,2470.058,13.32,0.085,108.4
2019-06-13T00:33:12,42.805,6.029,0.083,-0.023,0.01,100.0,102.0,96.0,13.4,1505.3,326.6,-0.7,1.9,2470.062,13.32,0.086,105.5
2019-06-13T00:36:13,42.805,6.029,0.09,-0.027,-0.014,100.0,102.0,97.0,13.4,1505.3,324.9,-0.7,1.9,2470.097,13.32,0.093,106.7
2019-06-13T00:39:14,42.805,6.029,0.065,-0.021,-0.007,99.0,102.0,97.0,13.4,1505.3,326.2,-0.7,1.8,2470.062,13.32,0.068,107.9
2019-06-13T00:42:15,42.805,6.029,0.035,-0.018,-0.05,100.0,102.0,96.0,13.3,1505.3,322.7,-0.7,1.8,2470.112,13.32,0.039,117.2
2019-06-13T00:45:16,42.805,6.029,0.09,-0.041,-0.021,100.0,102.0,98.0,13.4,1505.3,324.9,-0.7,1.8,2470.101,13.32,0.098,114.5
2019-06-13T00:48:17,42.805,6.029,0.071,0.0,-0.006,101.0,103.0,97.0,13.4,1505.3,325.7,-0.8,1.9,2470.105,13.32,0.07,90.0
2019-06-13T00:51:18,42.805,6.029,0.041,-0.006,-0.045,100.0,104.0,97.0,13.4,1505.3,323.3,-0.7,1.9,2470.096,13.32,0.041,98.3
2019-06-13T00:54:19,42.805,6.029,0.076,0.004,0.018,101.0,102.0,98.0,13.3,1505.3,326.9,-0.8,1.8,2470.076,13.32,0.076,87.0
2019-06-13T00:57:20,42.805,6.029,0.078,0.0,-0.026,99.0,102.0,98.0,13.4,1505.3,326.7,-0.8,1.8,2470.094,13.32,0.077,90.0
2019-06-13T01:00:21,42.805,6.029,0.083,-0.025,-0.006,100.0,102.0,97.0,13.4,1505.3,325.9,-0.7,1.9,2470.063,13.32,0.086,106.8
2019-06-13T01:03:22,42.805,6.029,0.048,0.0,-0.012,102.0,100.0,97.0,13.4,1505.3,327.9,-0.7,1.9,2470.055,13.32,0.048,90.0
2019-06-13T01:06:23,42.805,6.029,0.058,-0.017,-0.013,99.0,101.0,97.0,13.4,1505.3,325.7,-0.8,1.8,2470.099,13.32,0.06,106.3
2019-06-13T01:09:24,42.805,6.029,0.097,-0.037,0.015,99.0,100.0,98.0,13.4,1505.3,327.0,-0.7,1.8,2470.077,13.32,0.103,110.9
2019-06-13T01:12:25,42.805,6.029,0.07,-0.04,-0.001,101.0,103.0,98.0,13.4,1505.3,325.8,-0.8,1.8,2470.068,13.32,0.08,119.7
2019-06-13T01:15:26,42.805,6.029,0.051,-0.015,-0.024,99.0,102.0,97.0,13.4,1505.3,325.1,-0.7,1.9,2470.062,13.32,0.053,106.4
2019-06-13T01:18:27,42.805,6.029,0.055,-0.035,-0.017,100.0,102.0,97.0,13.3,1505.3,324.5,-0.7,1.8,2470.099,13.32,0.065,122.5
2019-06-13T01:21:28,42.805,6.029,0.085,-0.027,0.009,99.0,101.0,97.0,13.3,1505.3,327.8,-0.7,1.9,2470.112,13.32,0.089,107.6
2019-06-13T01:24:29,42.805,6.029,0.075,-0.032,-0.017,100.0,101.0,97.0,13.3,1505.3,322.9,-0.7,1.9,2470.08,13.32,0.081,113.1
2019-06-13T01:27:30,42.805,6.029,0.056,-0.008,-0.022,100.0,102.0,98.0,13.4,1505.3,325.1,-0.7,1.9,2470.137,13.32,0.056,98.1
2019-06-13T01:30:31,42.805,6.029,0.042,-0.041,-0.017,99.0,102.0,98.0,13.4,1505.3,327.9,-0.7,1.8,2470.113,13.32,0.058,134.3
2019-06-13T01:33:32,42.805,6.029,0.073,-0.029,-0.021,100.0,102.0,97.0,13.4,1505.3,326.9,-0.7,1.9,2470.145,13.32,0.078,111.7
2019-06-13T01:36:33,42.805,6.029,0.089,-0.039,0.018,100.0,102.0,97.0,13.4,1505.3,327.0,-0.7,1.9,2470.104,13.32,0.097,113.7
2019-06-13T01:39:34,42.805,6.029,0.076,-0.034,-0.027,100.0,102.0,98.0,13.4,1505.3,323.2,-0.7,1.9,2470.114,13.32,0.083,114.1
2019-06-13T01:42:35,42.805,6.029,0.059,-0.025,-0.006,100.0,102.0,97.0,13.4,1505.3,325.5,-0.7,1.9,2470.121,13.32,0.064,113.0
2019-06-13T01:45:36,42.805,6.029,0.076,-0.02,-0.003,100.0,103.0,97.0,13.3,1505.3,327.6,-0.8,1.8,2470.094,13.32,0.078,104.7
2019-06-13T01:48:37,42.805,6.029,0.077,-0.028,-0.033,99.0,101.0,97.0,13.4,1505.3,323.2,-0.7,1.9,2470.112,13.32,0.081,110.0
2019-06-13T01:51:38,42.805,6.029,0.089,-0.022,0.013,99.0,100.0,97.0,13.3,1505.3,324.5,-0.7,1.9,2470.103,13.32,0.091,103.9
2019-06-13T01:54:39,42.805,6.029,0.051,-0.021,-0.008,100.0,101.0,97.0,13.4,1505.3,323.3,-0.7,1.8,2470.153,13.32,0.055,112.4
2019-06-13T01:57:40,42.805,6.029,0.056,-0.004,0.011,100.0,102.0,97.0,13.4,1505.3,325.0,-0.7,1.8,2470.08,13.32,0.056,94.1
2019-06-13T02:00:41,42.805,6.029,0.074,-0.023,-0.013,100.0,102.0,97.0,13.3,1505.3,324.5,-0.7,1.8,2470.111,13.32,0.077,107.3
2019-06-13T02:03:42,42.805,6.029,0.04,-0.036,-0.027,100.0,101.0,97.0,13.3,1505.3,326.0,-0.7,1.8,2470.121,13.32,0.053,132.0
2019-06-13T02:06:43,42.805,6.029,0.068,-0.012,0.005,100.0,102.0,97.0,13.4,1505.3,324.7,-0.8,1.8,2470.11,13.32,0.069,100.0
2019-06-13T02:09:44,42.805,6.029,0.067,-0.009,0.004,99.0,100.0,97.0,13.3,1505.3,325.1,-0.7,1.8,2470.12,13.32,0.067,97.7
2019-06-13T02:12:45,42.805,6.029,0.066,-0.017,-0.016,99.0,102.0,97.0,13.3,1505.3,328.2,-0.7,1.8,2470.106,13.32,0.068,104.4
2019-06-13T02:15:46,42.805,6.029,0.031,-0.045,-0.065,100.0,101.0,97.0,13.4,1505.3,328.2,-0.7,1.8,2470.122,13.32,0.054,145.4
2019-06-13T02:18:47,42.805,6.029,0.052,-0.032,-0.003,99.0,102.0,96.0,13.3,1505.3,324.3,-0.7,1.8,2470.141,13.32,0.061,121.6
2019-06-13T02:21:48,42.805,6.029,0.054,-0.017,-0.023,99.0,102.0,96.0,13.3,1505.3,326.8,-0.7,1.9,2470.158,13.32,0.056,107.5
2019-06-13T02:24:49,42.805,6.029,0.068,-0.024,0.024,101.0,101.0,97.0,13.4,1505.3,325.6,-0.8,1.8,2470.126,13.32,0.072,109.4
2019-06-13T02:27:50,42.805,6.029,0.081,-0.018,-0.043,100.0,101.0,96.0,13.3,1505.3,325.9,-0.7,1.9,2470.149,13.32,0.082,102.5
2019-06-13T02:30:51,42.805,6.029,0.07,-0.028,-0.051,99.0,102.0,96.0,13.4,1505.3,324.0,-0.8,1.8,2470.129,13.32,0.075,111.8
2019-06-13T02:33:52,42.805,6.029,0.047,-0.014,-0.041,100.0,101.0,97.0,13.3,1505.3,324.7,-0.7,1.9,2470.123,13.32,0.049,106.6
2019-06-13T02:36:53,42.805,6.029,0.067,-0.013,-0.022,100.0,101.0,97.0,13.4,1505.3,323.7,-0.7,1.9,2470.113,13.32,0.068,101.0
2019-06-13T02:39:54,42.805,6.029,0.053,-0.001,-0.044,100.0,102.0,96.0,13.4,1505.3,324.0,-0.7,1.8,2470.161,13.32,0.053,91.1
2019-06-13T02:42:55,42.805,6.029,0.049,0.0,-0.012,101.0,102.0,95.0,13.3,1505.3,324.8,-0.7,1.9,2470.135,13.32,0.049,90.0
2019-06-13T02:45:56,42.805,6.029,0.07,-0.013,-0.003,99.0,103.0,97.0,13.3,1505.3,325.7,-0.7,1.9,2470.18,13.32,0.071,100.5
2019-06-13T02:48:57,42.805,6.029,0.047,-0.022,-0.008,100.0,101.0,96.0,13.4,1505.3,326.3,-0.8,1.9,2470.162,13.32,0.051,115.1
2019-06-13T02:51:58,42.805,6.029,0.079,-0.024,-0.01,98.0,101.0,98.0,13.4,1505.3,324.7,-0.8,1.9,2470.128,13.32,0.082,106.9
2019-06-13T02:54:59,42.805,6.029,0.057,-0.019,-0.017,102.0,102.0,95.0,13.4,1505.3,326.2,-0.7,1.8,2470.145,13.32,0.06,108.4
2019-06-13T02:58:00,42.805,6.029,0.08,-0.023,-0.032,100.0,101.0,98.0,13.4,1505.3,326.7,-0.7,1.9,2470.124,13.32,0.083,106.0
2019-06-13T03:01:01,42.805,6.029,0.066,-0.019,-0.032,99.0,102.0,96.0,13.4,1505.3,325.2,-0.7,1.9,2470.194,13.32,0.068,106.1
2019-06-13T03:04:02,42.805,6.029,0.055,-0.021,-0.012,100.0,104.0,96.0,13.4,1505.3,322.7,-0.8,1.9,2470.17,13.32,0.058,110.9
2019-06-13T03:07:03,42.805,6.029,0.08,-0.029,-0.033,101.0,102.0,97.0,13.4,1505.3,326.0,-0.7,1.9,2470.124,13.32,0.085,109.9
2019-06-13T03:10:04,42.805,6.029,0.028,-0.03,-0.022,99.0,102.0,96.0,13.4,1505.3,328.0,-0.7,1.8,2470.139,13.32,0.041,137.0
2019-06-13T03:13:05,42.805,6.029,0.064,-0.031,-0.027,99.0,103.0,96.0,13.4,1505.3,323.7,-0.8,1.9,2470.12,13.32,0.071,115.8
2019-06-13T03:16:06,42.805,6.029,0.074,-0.035,0.003,101.0,101.0,97.0,13.4,1505.3,326.5,-0.7,1.8,2470.173,13.32,0.081,115.3
2019-06-13T03:19:07,42.805,6.029,0.06,-0.007,-0.005,99.0,101.0,97.0,13.4,1505.3,326.5,-0.7,1.9,2470.119,13.32,0.06,96.7
2019-06-13T03:22:08,42.805,6.029,0.044,-0.036,-0.036,99.0,100.0,96.0,13.3,1505.3,328.4,-0.7,1.8,2470.168,13.32,0.056,129.3
2019-06-13T03:25:09,42.805,6.029,0.074,-0.011,-0.027,100.0,102.0,97.0,13.3,1505.3,323.3,-0.7,1.8,2470.184,13.32,0.074,98.5
2019-06-13T03:28:10,42.805,6.029,0.049,-0.014,-0.038,99.0,102.0,97.0,13.3,1505.3,324.9,-0.7,1.9,2470.132,13.32,0.05,105.9
2019-06-13T03:31:11,42.805,6.029,0.063,-0.009,-0.021,99.0,104.0,96.0,13.4,1505.3,323.9,-0.8,1.8,2470.191,13.32,0.063,98.1
2019-06-13T03:34:12,42.805,6.029,0.051,-0.028,-0.041,100.0,102.0,96.0,13.3,1505.3,325.3,-0.7,1.8,2470.187,13.32,0.058,118.8
2019-06-13T03:37:13,42.805,6.029,0.052,-0.015,-0.017,97.0,102.0,96.0,13.4,1505.3,326.5,-0.7,1.8,2470.184,13.32,0.054,106.1
2019-06-13T03:40:14,42.805,6.029,0.032,-0.011,-0.035,97.0,102.0,96.0,13.4,1505.3,327.9,-0.7,1.9,2470.226,13.32,0.033,109.0
2019-06-13T03:43:15,42.805,6.029,0.065,-0.01,-0.011,99.0,101.0,97.0,13.4,1505.3,327.0,-0.7,1.8,2470.152,13.32,0.065,98.7
2019-06-13T03:46:16,42.805,6.029,0.062,-0.005,-0.023,99.0,101.0,97.0,13.4,1505.3,324.4,-0.7,1.9,2470.11,13.32,0.062,94.6
2019-06-13T03:49:17,42.805,6.029,0.054,-0.028,-0.06,99.0,102.0,96.0,13.4,1505.3,327.3,-0.7,1.9,2470.151,13.32,0.06,117.4
2019-06-13T03:52:18,42.805,6.029,0.05,-0.005,-0.006,100.0,102.0,96.0,13.4,1505.3,325.0,-0.7,1.9,2470.139,13.32,0.05,95.7
2019-06-13T03:55:19,42.805,6.029,0.042,-0.008,0.0,100.0,107.0,96.0,13.4,1505.3,327.0,-0.7,1.8,2470.167,13.32,0.042,100.8
2019-06-13T03:58:20,42.805,6.029,0.05,-0.005,0.006,98.0,103.0,96.0,13.4,1505.3,326.5,-0.7,1.9,2470.162,13.32,0.05,95.7
2019-06-13T04:01:21,42.805,6.029,0.038,-0.018,-0.05,100.0,102.0,96.0,13.4,1505.3,325.1,-0.7,1.8,2470.168,13.32,0.042,115.3
2019-06-13T04:04:22,42.805,6.029,0.054,-0.027,-0.012,99.0,104.0,94.0,13.4,1505.3,328.1,-0.7,1.9,2470.199,13.32,0.06,116.6
2019-06-13T04:07:23,42.805,6.029,0.048,-0.003,0.003,100.0,101.0,96.0,13.4,1505.3,323.8,-0.8,1.9,2470.161,13.32,0.048,93.6
2019-06-13T04:10:24,42.805,6.029,0.027,0.0,-0.026,99.0,103.0,97.0,13.4,1505.3,326.3,-0.7,1.8,2470.147,13.32,0.026,90.0
2019-06-13T04:13:25,42.805,6.029,0.051,-0.026,-0.047,99.0,105.0,96.0,13.4,1505.3,325.4,-0.7,1.8,2470.205,13.32,0.057,117.0
2019-06-13T04:16:26,42.805,6.029,0.06,0.005,-0.01,98.0,102.0,95.0,13.4,1505.3,327.6,-0.7,1.8,2470.166,13.32,0.06,85.2
2019-06-13T04:19:27,42.805,6.029,0.045,-0.008,-0.039,100.0,103.0,97.0,13.3,1505.3,324.7,-0.7,1.9,2470.125,13.32,0.045,100.1
2019-06-13T04:22:28,42.805,6.029,0.039,-0.003,-0.038,100.0,105.0,96.0,13.3,1505.3,326.9,-0.7,1.8,2470.153,13.32,0.039,94.4
2019-06-13T04:25:29,42.805,6.029,0.033,-0.002,-0.002,96.0,104.0,97.0,13.4,1505.3,324.9,-0.7,1.9,2470.195,13.32,0.033,93.5
2019-06-13T04:28:30,42.805,6.029,0.065,-0.008,-0.051,99.0,102.0,96.0,13.4,1505.3,325.5,-0.7,1.9,2470.169,13.32,0.065,97.0
2019-06-13T04:31:31,42.805,6.029,0.052,-0.023,-0.042,99.0,106.0,97.0,13.3,1505.3,328.2,-0.7,1.9,2470.164,13.32,0.056,113.9
2019-06-13T04:34:32,42.805,6.029,0.054,-0.005,-0.029,100.0,103.0,96.0,13.3,1505.3,325.7,-0.7,1.8,2470.162,13.32,0.054,95.3
2019-06-13T04:37:33,42.805,6.029,0.048,-0.035,-0.049,100.0,109.0,97.0,13.4,1505.3,325.4,-0.7,1.8,2470.164,13.32,0.059,126.1
2019-06-13T04:40:34,42.805,6.029,0.067,-0.01,-0.036,99.0,104.0,97.0,13.4,1505.3,327.8,-0.7,1.9,2470.153,13.32,0.067,98.5
2019-06-13T04:43:35,42.805,6.029,0.058,-0.005,-0.027,100.0,102.0,96.0,13.3,1505.3,326.2,-0.7,1.8,2470.12,13.32,0.058,94.9
2019-06-13T04:46:36,42.805,6.029,0.063,0.007,0.009,100.0,103.0,96.0,13.4,1505.3,328.1,-0.7,1.9,2470.163,13.32,0.063,83.7
2019-06-13T04:49:37,42.805,6.029,0.045,-0.008,-0.048,101.0,103.0,96.0,13.4,1505.3,325.9,-0.7,1.9,2470.14,13.32,0.045,100.1
2019-06-13T04:52:38,42.805,6.029,0.058,-0.025,0.013,100.0,103.0,96.0,13.4,1505.3,325.5,-0.7,1.8,2470.186,13.32,0.063,113.3
2019-06-13T04:55:39,42.805,6.029,0.048,-0.024,-0.014,100.0,103.0,97.0,13.4,1505.3,326.1,-0.7,1.9,2470.125,13.32,0.053,116.6
2019-06-13T04:58:40,42.805,6.029,0.058,0.004,-0.006,100.0,102.0,97.0,13.4,1505.3,323.3,-0.7,1.8,2470.156,13.32,0.058,86.1
2019-06-13T05:01:41,42.805,6.029,0.062,-0.006,-0.025,99.0,102.0,98.0,13.4,1505.3,325.8,-0.7,1.9,2470.161,13.32,0.062,95.5
2019-06-13T05:04:42,42.805,6.029,0.047,-0.017,-0.015,99.0,102.0,96.0,13.4,1505.3,323.5,-0.7,1.8,2470.126,13.32,0.049,109.9
2019-06-13T05:07:43,42.805,6.029,0.077,-0.012,-0.02,99.0,102.0,97.0,13.3,1505.3,325.4,-0.7,1.9,2470.155,13.32,0.077,98.9
2019-06-13T05:10:44,42.805,6.029,0.077,-0.016,-0.025,100.0,102.0,96.0,13.4,1505.3,327.2,-0.8,1.8,2470.138,13.32,0.078,101.7
2019-06-13T05:13:45,42.805,6.029,0.032,-0.013,-0.028,98.0,102.0,96.0,13.4,1505.3,324.4,-0.7,1.9,2470.135,13.32,0.034,112.1
2019-06-13T05:16:46,42.805,6.029,0.05,0.0,-0.032,99.0,106.0,96.0,13.3,1505.3,325.8,-0.7,1.8,2470.133,13.32,0.05,90.0
2019-06-13T05:19:47,42.805,6.029,0.048,0.007,-0.018,100.0,107.0,96.0,13.4,1505.3,325.8,-0.7,1.9,2470.157,13.32,0.048,81.7
2019-06-13T05:22:48,42.805,6.029,0.034,0.0,0.001,100.0,108.0,96.0,13.4,1505.3,326.4,-0.7,1.8,2470.147,13.32,0.034,90.0
2019-06-13T05:25:49,42.805,6.029,0.047,-0.012,-0.012,98.0,106.0,98.0,13.4,1505.3,325.9,-0.7,1.8,2470.12,13.32,0.048,104.3
2019-06-13T05:28:50,42.805,6.029,0.041,-0.018,-0.003,100.0,104.0,96.0,13.3,1505.3,328.1,-0.7,1.9,2470.149,13.32,0.044,113.7
2019-06-13T05:31:51,42.805,6.029,0.052,-0.029,-0.009,100.0,104.0,97.0,13.4,1505.3,325.5,-0.7,1.9,2470.12,13.32,0.059,119.1
2019-06-13T05:34:52,42.805,6.029,0.051,-0.005,-0.007,100.0,106.0,96.0,13.3,1505.3,326.3,-0.7,1.8,2470.161,13.32,0.051,95.6
2019-06-13T05:37:53,42.805,6.029,0.036,-0.017,-0.028,100.0,107.0,96.0,13.4,1505.3,324.7,-0.7,1.8,2470.108,13.32,0.039,115.3
2019-06-13T05:40:54,42.805,6.029,0.059,0.003,-0.012,100.0,105.0,97.0,13.4,1505.3,327.5,-0.7,1.8,2470.137,13.32,0.059,87.1
2019-06-13T05:43:55,42.805,6.029,0.054,-0.015,-0.006,99.0,108.0,96.0,13.3,1505.3,322.7,-0.8,1.8,2470.151,13.32,0.056,105.5
2019-06-13T05:46:56,42.805,6.029,0.063,0.0,0.012,99.0,108.0,97.0,13.3,1505.3,324.2,-0.7,1.9,2470.133,13.32,0.062,90.0
2019-06-13T05:49:57,42.805,6.029,0.045,-0.015,-0.007,97.0,104.0,96.0,13.3,1505.3,327.2,-0.7,1.9,2470.171,13.32,0.047,108.4
2019-06-13T05:52:58,42.805,6.029,0.066,-0.003,-0.011,100.0,106.0,98.0,13.3,1505.3,325.6,-0.7,1.9,2470.095,13.32,0.066,92.6
2019-06-13T05:55:59,42.805,6.029,0.055,-0.025,-0.001,99.0,104.0,97.0,13.4,1505.3,326.0,-0.7,1.9,2470.142,13.32,0.06,114.4
2019-06-13T05:59:00,42.805,6.029,0.06,0.003,-0.022,99.0,107.0,96.0,13.4,1505.3,328.0,-0.8,1.9,2470.122,13.32,0.06,87.1
2019-06-13T06:02:01,42.805,6.029,0.038,0.005,0.003,99.0,105.0,97.0,13.4,1505.3,324.3,-0.7,1.8,2470.155,13.32,0.038,82.5
2019-06-13T06:05:02,42.805,6.029,0.016,0.007,-0.027,100.0,107.0,98.0,13.3,1505.3,325.2,-0.7,1.8,2470.156,13.32,0.017,66.4
2019-06-13T06:08:03,42.805,6.029,0.045,-0.005,-0.028,99.0,109.0,97.0,13.4,1505.3,326.4,-0.7,1.8,2470.099,13.32,0.045,96.3
2019-06-13T06:11:04,42.805,6.029,0.038,-0.005,-0.012,100.0,108.0,96.0,13.4,1505.3,326.4,-0.7,1.8,2470.135,13.32,0.038,97.5
2019-06-13T06:14:05,42.805,6.029,0.043,-0.021,-0.029,99.0,106.0,96.0,13.4,1505.3,324.2,-0.7,1.9,2470.11,13.32,0.047,116.0
2019-06-13T06:17:06,42.805,6.029,0.027,0.024,-0.038,99.0,110.0,97.0,13.3,1505.3,322.8,-0.8,1.8,2470.086,13.32,0.036,48.4
2019-06-13T06:20:07,42.805,6.029,0.024,0.001,0.0,101.0,108.0,96.0,13.3,1505.3,325.4,-0.7,1.8,2470.037,13.32,0.024,87.6
2019-06-13T06:23:08,42.805,6.029,0.049,-0.005,-0.003,99.0,107.0,97.0,13.4,1505.3,326.5,-0.7,1.8,2470.123,13.32,0.049,95.8
2019-06-13T06:26:09,42.805,6.029,0.025,0.004,-0.01,99.0,110.0,97.0,13.4,1505.3,324.4,-0.7,1.9,2470.122,13.32,0.025,80.9
2019-06-13T06:29:10,42.805,6.029,0.027,-0.005,-0.02,99.0,108.0,97.0,13.4,1505.3,327.6,-0.7,1.8,2470.122,13.32,0.027,100.5
2019-06-13T06:32:11,42.805,6.029,0.053,0.006,-0.018,100.0,108.0,97.0,13.4,1505.3,325.4,-0.7,1.9,2470.043,13.32,0.053,83.5
2019-06-13T06:35:12,42.805,6.029,0.06,-0.008,-0.021,100.0,110.0,97.0,13.3,1505.3,324.5,-0.8,1.8,2470.106,13.32,0.06,97.6
2019-06-13T06:38:13,42.805,6.029,0.043,0.006,-0.027,99.0,108.0,96.0,13.4,1505.3,327.6,-0.7,1.9,2470.049,13.32,0.043,82.1
2019-06-13T06:41:14,42.805,6.029,0.036,-0.012,-0.051,98.0,104.0,97.0,13.3,1505.3,327.0,-0.7,1.8,2470.082,13.32,0.037,108.4
2019-06-13T06:44:15,42.805,6.029,0.046,-0.022,-0.015,98.0,109.0,96.0,13.4,1505.3,325.1,-0.7,1.8,2470.097,13.32,0.05,115.6
2019-06-13T06:47:16,42.805,6.029,0.034,-0.004,0.01,99.0,106.0,97.0,13.4,1505.3,323.3,-0.7,1.8,2470.094,13.32,0.034,96.7
2019-06-13T06:50:17,42.805,6.029,0.036,-0.012,-0.031,99.0,111.0,98.0,13.4,1505.3,324.3,-0.7,1.8,2470.069,13.32,0.037,108.4
2019-06-13T06:53:18,42.805,6.029,0.051,0.012,-0.024,100.0,110.0,96.0,13.4,1505.3,322.9,-0.7,1.8,2470.055,13.32,0.052,76.8
2019-06-13T06:56:19,42.805,6.029,0.064,0.012,-0.036,100.0,109.0,96.0,13.4,1505.3,324.7,-0.8,1.8,2470.067,13.32,0.065,79.4
2019-06-13T06:59:20,42.805,6.029,0.046,0.004,-0.004,98.0,113.0,97.0,13.4,1505.3,327.2,-0.8,1.8,2470.12,13.32,0.046,85.0
2019-06-13T07:02:21,42.805,6.029,0.035,0.001,-0.028,99.0,110.0,97.0,13.4,1505.3,326.4,-0.7,1.8,2470.084,13.32,0.035,88.4
2019-06-13T07:05:22,42.805,6.029,0.043,-0.006,-0.017,100.0,110.0,97.0,13.4,1505.3,325.3,-0.7,1.8,2470.092,13.32,0.043,97.9
2019-06-13T07:08:23,42.805,6.029,0.034,-0.011,-0.009,100.0,113.0,97.0,13.4,1505.3,325.8,-0.8,1.8,2470.111,13.32,0.035,107.9
2019-06-13T07:11:24,42.805,6.029,0.024,-0.007,-0.033,100.0,115.0,97.0,13.4,1505.3,327.0,-0.7,1.8,2470.049,13.32,0.025,106.3
2019-06-13T07:14:25,42.805,6.029,0.032,0.018,0.0,100.0,113.0,99.0,13.4,1505.3,324.3,-0.7,1.8,2470.103,13.32,0.036,60.6
2019-06-13T07:17:26,42.805,6.029,0.033,-0.011,-0.004,98.0,114.0,97.0,13.4,1505.3,327.1,-0.8,1.9,2470.047,13.32,0.034,108.4
2019-06-13T07:20:27,42.805,6.029,0.039,-0.009,-0.013,98.0,112.0,96.0,13.4,1505.3,327.2,-0.8,1.8,2470.074,13.32,0.04,103.0
2019-06-13T07:23:28,42.805,6.029,0.028,0.002,-0.058,100.0,116.0,96.0,13.3,1505.3,326.3,-0.8,1.9,2470.072,13.32,0.028,85.9
2019-06-13T07:26:29,42.805,6.029,0.048,-0.018,-0.035,100.0,110.0,97.0,13.4,1505.3,327.8,-0.7,1.8,2470.078,13.32,0.051,110.6
2019-06-13T07:29:30,42.805,6.029,0.043,-0.001,-0.037,98.0,112.0,97.0,13.4,1505.3,324.4,-0.7,1.9,2470.048,13.32,0.043,91.3
2019-06-13T07:32:31,42.805,6.029,0.029,0.0,-0.021,99.0,113.0,97.0,13.4,1505.3,326.4,-0.7,1.8,2470.068,13.32,0.028,90.0
2019-06-13T07:35:32,42.805,6.029,0.045,-0.013,-0.023,100.0,112.0,96.0,13.4,1505.3,323.3,-0.8,1.8,2470.037,13.32,0.046,106.1
2019-06-13T07:38:33,42.805,6.029,0.046,-0.003,-0.016,99.0,114.0,97.0,13.3,1505.3,326.8,-0.7,1.8,2470.073,13.32,0.046,93.7
2019-06-13T07:41:34,42.805,6.029,0.026,0.008,-0.011,100.0,115.0,97.0,13.4,1505.3,325.2,-0.7,1.9,2470.081,13.32,0.027,72.9
2019-06-13T07:44:35,42.805,6.029,0.026,0.016,0.004,100.0,109.0,97.0,13.4,1505.3,324.0,-0.7,1.8,2470.052,13.32,0.03,58.4
2019-06-13T07:47:36,42.805,6.029,0.051,-0.008,0.002,100.0,113.0,97.0,13.4,1505.3,325.9,-0.7,1.8,2470.023,13.32,0.051,98.9
2019-06-13T07:50:37,42.805,6.029,0.019,0.015,-0.013,99.0,114.0,98.0,13.4,1505.3,326.3,-0.7,1.8,2470.024,13.32,0.024,51.7
2019-06-13T07:53:38,42.805,6.029,0.037,0.0,-0.02,100.0,112.0,97.0,13.4,1505.3,326.7,-0.7,1.8,2470.024,13.32,0.037,90.0
2019-06-13T07:56:39,42.805,6.029,0.049,-0.012,-0.029,99.0,112.0,97.0,13.4,1505.3,326.8,-0.7,1.9,2470.027,13.32,0.05,103.8
2019-06-13T07:59:40,42.805,6.029,0.065,0.005,-0.008,99.0,114.0,97.0,13.4,1505.3,323.2,-0.7,1.8,2470.052,13.32,0.065,85.6
2019-06-13T08:02:41,42.805,6.029,0.031,0.0,-0.028,100.0,111.0,97.0,13.4,1505.3,324.9,-0.8,1.8,2470.017,13.32,0.03,90.0
2019-06-13T08:05:42,42.805,6.029,0.058,-0.008,-0.012,99.0,110.0,97.0,13.3,1505.3,324.2,-0.7,1.8,2470.077,13.32,0.058,97.8
2019-06-13T08:08:43,42.805,6.029,0.038,0.009,-0.023,99.0,113.0,98.0,13.4,1505.3,325.7,-0.8,1.8,2470.062,13.32,0.039,76.7
2019-06-13T08:11:44,42.805,6.029,0.044,-0.007,0.022,99.0,111.0,98.0,13.4,1505.3,327.9,-0.7,1.8,2470.032,13.32,0.044,99.0
2019-06-13T08:14:45,42.805,6.029,0.046,-0.004,-0.022,99.0,112.0,97.0,13.4,1505.3,325.8,-0.7,1.9,2469.971,13.32,0.046,95.0
2019-06-13T08:17:46,42.805,6.029,0.031,0.012,-0.03,100.0,114.0,97.0,13.4,1505.3,326.5,-0.7,1.9,2470.06,13.32,0.033,68.8
2019-06-13T08:20:47,42.805,6.029,0.044,-0.004,-0.016,101.0,110.0,96.0,13.4,1505.3,323.4,-0.7,1.8,2470.016,13.32,0.044,95.2
2019-06-13T08:23:48,42.805,6.029,0.026,-0.02,-0.043,100.0,114.0,97.0,13.4,1505.3,324.1,-0.8,1.9,2470.031,13.32,0.032,127.6
2019-06-13T08:26:49,42.805,6.029,0.054,-0.014,0.005,100.0,111.0,98.0,13.4,1505.3,323.4,-0.7,1.8,2470.047,13.32,0.055,104.5
2019-06-13T08:29:50,42.805,6.029,0.051,-0.007,0.001,101.0,116.0,96.0,13.4,1505.3,324.0,-0.7,1.8,2469.999,13.32,0.051,97.8
2019-06-13T08:32:51,42.805,6.029,0.021,-0.017,-0.052,99.0,112.0,97.0,13.3,1505.3,324.5,-0.7,1.8,2470.019,13.32,0.027,129.0
2019-06-13T08:35:52,42.805,6.029,0.048,-0.001,-0.042,98.0,113.0,95.0,13.4,1505.3,328.2,-0.7,1.9,2470.08,13.32,0.048,91.2
2019-06-13T08:38:53,42.805,6.029,0.049,-0.013,-0.007,100.0,112.0,97.0,13.4,1505.3,325.8,-0.8,1.8,2470.048,13.32,0.05,104.9
2019-06-13T08:41:54,42.805,6.029,0.005,0.0,-0.023,100.0,113.0,98.0,13.4,1505.3,324.7,-0.8,1.8,2469.996,13.32,0.005,90.0
2019-06-13T08:44:55,42.805,6.029,0.04,0.002,-0.019,99.0,113.0,98.0,13.3,1505.3,323.3,-0.7,1.9,2470.032,13.32,0.04,87.1
2019-06-13T08:47:56,42.805,6.029,0.001,0.028,-0.039,101.0,111.0,96.0,13.4,1505.3,324.3,-0.7,1.8,2470.033,13.32,0.028,2.0
2019-06-13T08:50:57,42.805,6.029,0.039,-0.004,-0.014,100.0,113.0,95.0,13.3,1505.3,326.4,-0.7,1.8,2470.01,13.32,0.039,95.9
2019-06-13T08:53:58,42.805,6.029,0.022,-0.009,-0.014,100.0,112.0,98.0,13.4,1505.3,328.2,-0.7,1.9,2470.029,13.32,0.023,112.2
2019-06-13T08:56:59,42.805,6.029,0.033,0.015,0.002,100.0,116.0,96.0,13.3,1505.3,323.5,-0.7,1.9,2470.044,13.32,0.036,65.6
2019-06-13T09:00:00,42.805,6.029,0.04,0.004,-0.007,99.0,112.0,97.0,13.4,1505.3,324.3,-0.7,1.8,2470.006,13.32,0.04,84.3
2019-06-13T09:03:01,42.805,6.029,0.01,-0.01,0.022,101.0,112.0,96.0,13.4,1505.3,325.7,-0.7,1.8,2470.03,13.32,0.014,135.0
2019-06-13T09:06:02,42.805,6.029,0.038,-0.004,-0.023,98.0,117.0,98.0,13.4,1505.3,326.7,-0.7,1.9,2470.011,13.32,0.038,96.0
2019-06-13T09:09:03,42.805,6.029,0.023,-0.017,-0.049,100.0,113.0,96.0,13.4,1505.3,325.9,-0.7,1.8,2470.007,13.32,0.028,126.5
2019-06-13T09:12:04,42.805,6.029,0.042,-0.012,-0.019,99.0,111.0,97.0,13.4,1505.3,323.5,-0.8,1.8,2469.967,13.32,0.043,105.9
2019-06-13T09:15:05,42.805,6.029,0.056,-0.011,-0.008,100.0,109.0,98.0,13.4,1505.3,326.0,-0.8,1.8,2470.024,13.32,0.057,101.1
2019-06-13T09:18:06,42.805,6.029,0.05,-0.004,-0.008,99.0,112.0,97.0,13.4,1505.3,324.0,-0.8,1.9,2469.987,13.32,0.05,94.6
2019-06-13T09:21:07,42.805,6.029,0.046,-0.018,-0.027,99.0,113.0,98.0,13.3,1505.3,325.5,-0.7,1.8,2469.997,13.32,0.049,111.4
2019-06-13T09:24:08,42.805,6.029,0.045,-0.002,-0.011,99.0,108.0,97.0,13.3,1505.3,323.4,-0.8,1.9,2470.007,13.32,0.045,92.5
2019-06-13T09:27:09,42.805,6.029,0.046,0.002,0.002,100.0,116.0,98.0,13.3,1505.3,325.7,-0.7,1.9,2469.971,13.32,0.046,87.5
2019-06-13T09:30:10,42.805,6.029,0.036,-0.006,-0.028,101.0,113.0,96.0,13.4,1505.3,324.9,-0.8,1.8,2469.985,13.32,0.036,99.5
2019-06-13T09:33:11,42.805,6.029,0.018,0.003,-0.046,100.0,115.0,97.0,13.3,1505.3,326.1,-0.7,1.8,2469.993,13.32,0.018,80.5
2019-06-13T09:36:12,42.805,6.029,0.047,0.003,-0.002,98.0,112.0,98.0,13.4,1505.3,327.0,-0.7,1.9,2469.982,13.32,0.047,86.4
2019-06-13T09:39:13,42.805,6.029,0.057,0.013,0.019,100.0,112.0,97.0,13.4,1505.3,325.8,-0.7,1.8,2469.971,13.32,0.058,77.2
2019-06-13T09:42:14,42.805,6.029,0.029,-0.002,-0.016,98.0,115.0,97.0,13.3,1505.3,326.5,-0.7,1.9,2470.015,13.32,0.029,93.9
2019-06-13T09:45:15,42.805,6.029,0.054,-0.004,-0.015,99.0,114.0,97.0,13.4,1505.3,325.3,-0.7,1.9,2469.999,13.32,0.054,94.2